www.pogodaiklimat.ru

Погода и климат >> Архив погоды >> Россия >> Якутия >> Шелагонцы


АРХИВ ПОГОДЫ в Шелагонцах

Время (UTC), дата Ветер
(напр.,м/с)
 
Видим.   Явления Облачность Т
(С)
Тd
(С)
f
(%)
Тe
(С)
Тes
(С)
Комфортность P
(гПа)
Po
(гПа)
Тmin
(С)
Tmax
(С)
R
(мм)
R24
(мм)
S
(см)
00 15.09 штиль 0 50 км 10/10 600 м
[Sc]
-14.1 -14.7 95 -14 -14 1005.3 974.7 -14.1 24
03 15.09 З 3 50 км 10/10 600 м
[Sc]
-7.6 -9.8 84 -13 -13 1005.0 975.1
06 15.09 ЮЗ 3 50 км 8/8 600 м
[Sc Ac lent]
-0.2 -2.9 82 -5 -4 1004.2 975.1
09 15.09 В 1 50 км 8/8 600 м
[Sc]
+1.1 -0.9 86 -1 -1 1004.2 975.3
12 15.09 СВ 3 50 км 10/10 600 м
[Sc]
+0.3 -0.3 96 -5 -5 1005.2 976.2 +1.2
15 15.09 З 3 10 км снег 10/0
[As op]
-1.2 -0.7 100 -6 -6 1004.0 974.8
18 15.09 З 1 10 км снег 10/0
[As op]
-2.3 -3.2 94 -5 -5 1004.8 975.4
21 15.09 СЗ 1 10 км снег 10/0
[As op]
-4.2 -5.1 93 -7 -7 1005.2 975.6
00 16.09 ЮВ 3 20 км слаб. снег {метель} 10/0 600 м
[As op]
-1.5 -2.9 90 -7 -6 1003.0 973.5 -4.3 5 29
03 16.09 ЮВ 3 50 км позёмок {снег} 10/10 600 м
[Cb cap]
0.0 -1.4 90 -5 -5 1004.7 975.7
06 16.09 ЮВ 3 20 км слаб. крупа 10/10 600 м
[Cb cap]
+1.1 -0.9 86 -3 -3 1006.9 977.9
09 16.09 В 1 50 км {ливн. осадки, метель} 10/10 600 м
[Sc]
+1.3 -2.5 76 -0 -0 1008.7 979.6
12 16.09 Ю 1 50 км {ливн. осадки, метель} 10/10 600 м
[Sc]
+0.4 -2.3 82 -1 -1 1010.9 981.6 +1.5 1
15 16.09 штиль 0 50 км 8/6 600 м
[Sc Ac lent]
-1.6 -3.2 89 -3 -3 1012.2 982.7
18 16.09 штиль 0 50 км 8/6 600 м
[Sc Ac trans]
-4.0 -5.4 90 -5 -5 1014.2 984.3
21 16.09 штиль 0 50 км 10/10 600 м
[Sc]
-5.8 -6.5 95 -7 -7 1016.0 985.9
00 17.09 штиль 0 50 км 10/10 600 м
[Sc]
-11.1 -11.1 100 -11 -11 1018.7 987.8 -11.2 29
03 17.09 штиль 0 50 км 3/0
[Ac lent]
-3.2 -6.0 81 -4 -1 1018.1 988.3
06 17.09 штиль 0 50 км 8/8 600 м
[Sc]
+2.9 -2.9 66 +2 +3 1018.0 988.7
09 17.09 СВ 1 50 км 8/8 600 м
[Sc]
+3.2 -0.9 74 +2 +2 1018.8 989.6
12 17.09 Ю 1 50 км 8/0
[Ac lent]
-2.9 -3.6 95 -5 -5 1020.2 990.4 +3.3
15 17.09 штиль 0 50 км ясно -9.8 -11.0 91 -10 -10 1022.0 991.3
18 17.09 Ю 3 50 км 10/0
[Cs]
-12.4 -12.4 100 -18 -18 1022.3 991.3
21 17.09 штиль 0 50 км 10/0
[Cs]
-13.1 -13.1 100 -13 -13 1022.8 991.6
00 18.09 штиль 0 50 км 9/0
[Ac trans]
-12.0 -12.0 100 -12 -12 1023.6 992.5 -13.4 29
03 18.09 штиль 0 50 км 8/0
[Ac trans]
-10.2 -10.8 95 -11 -8 1021.1 990.4
06 18.09 штиль 0 50 км 10/0
[Ac As]
-1.2 -4.1 81 -2 -1 1018.7 989.0
09 18.09 З 1 50 км 9/0
[Ac trans Cc]
+0.9 -4.4 68 -1 -0 1017.1 987.7
12 18.09 З 1 50 км 9/0
[Ac As]
-0.4 -4.5 74 -2 -2 1016.9 987.4 +1.2
15 18.09 З 1 50 км 10/0
[Ac As]
-4.0 -6.5 83 -6 -6 1016.5 986.6
18 18.09 штиль 0 50 км 9/0
[Ac trans]
-4.0 -5.7 88 -5 -5 1015.8 985.9
21 18.09 штиль 0 50 км 10/10
[Sc]
-6.2 -8.2 86 -7 -7 1017.1 987.0
00 19.09 штиль 0 50 км 10/10 600 м
[Sc]
-3.1 -2.9 100 -4 -4 1017.5 987.4 -4.1 29
03 19.09 З 3 50 км 10/6 600 м
[Sc Ac trans]
-0.9 -4.1 79 -6 -5 1016.2 986.7
06 19.09 З 1 50 км 10/4 600 м
[Sc Ac trans]
+1.7 -1.1 82 0 +1 1016.3 987.0
09 19.09 З 1 50 км 10/0
[Ac trans]
+2.2 -2.8 69 +1 +1 1016.3 987.1
12 19.09 штиль 0 50 км 10/10 600 м
[Sc]
+0.9 -0.8 88 -0 -0 1016.8 987.5 +2.3
15 19.09 штиль 0 50 км 10/0
[Ac trans]
-1.3 -2.5 92 -3 -3 1017.1 987.5
18 19.09 штиль 0 50 км 10/0
[Ac trans]
-4.4 -5.8 90 -5 -5 1017.1 987.2
21 19.09 штиль 0 50 км 6/0
[Ac lent]
-6.6 -7.8 91 -8 -8 1016.5 986.3
00 20.09 штиль 0 50 км 4/0
[Ac trans]
-9.8 -11.0 91 -10 -10 1015.7 985.2 -10.2 22
03 20.09 Ю 3 50 км 6/0
[Cc]
+4.0 -3.2 59 +1 +3 1012.5 983.6
06 20.09 ЮЗ 5 50 км 6/4 1000 м
[Cu Sc Cs]
+3.8 +0.1 77 -1 -0 1011.3 982.4
09 20.09 ЮЗ 1 50 км 10/0
[As trans Cc]
+5.0 -2.9 57 +4 +5 1009.2 980.5
12 20.09 Ю 3 50 км 9/0
[Ac As Cc]
+2.5 -5.3 56 -1 -1 1009.0 980.0 +5.1
15 20.09 Ю 1 50 км 10/0
[Ac As]
+3.0 -0.5 78 +2 +2 1008.4 979.5
18 20.09 штиль 0 50 км ?/? +2.3 -0.1 84 +1 +1 1007.8 978.9
21 20.09 ЮЗ 1 50 км 10/0
[As trans]
+2.0 +0.4 89 0 0 1007.2 978.3
00 21.09 В 5 50 км 10/10 600 м
[Sc]
+2.2 +0.6 89 -3 -3 1005.1 976.3 +2.2 19
03 21.09 ЮВ 3 50 км 10/10 600 м
[Sc]
+3.3 +1.0 85 -1 -1 1004.4 975.7
06 21.09 Ю 3 20 км слаб. дождь 10/0 600 м
[As op]
+3.9 +2.4 90 0 0 1000.1 971.6
09 21.09 В 1 50 км {дождь} 10/0
[As op]
+4.3 +3.8 97 +3 +3 998.2 969.8
12 21.09 ЮВ 3 50 км {дождь} 10/0 600 м
[As op]
+5.0 +4.3 95 +1 +1 998.1 969.8 +5.1 0.0
15 21.09 ЮВ 1 50 км 10/0
[Ac trans]
+3.2 +2.7 97 +1 +1 999.2 970.6
18 21.09 штиль 0 50 км 10/0
[Ac trans]
+2.3 +1.8 96 +1 +1 999.3 970.6
21 21.09 ЮЗ 1 50 км 6/0
[Ac lent]
+0.6 -0.5 92 -1 -1 1000.4 971.5

 

Местоположение метеостанции Шелагонцы (Якутия, Россия): широта 66.25 долгота 114.20 высота над уровнем моря 236 м.

В архиве по умолчанию представлена погода в Шелагонцах за последнюю неделю. Архивные данные за месяц целиком и за предыдущие месяцы, начиная с января 2011 года, Вы можете получить, выбрав интересующий диапазон дат из раскрывающегося списка и нажав кнопку "Ввод!".


*Определитесь, кто Вы:
робот инопланетянин человек

Внимание! Время в таблицах - всемирное. Для получения местного времени необходимо прибавить поправку, которая равна 9 ч.

Смотрите также архив погоды в соседних городах и на ближайших метеорологических станциях:

Погода в Полярном (Якутия, Россия) (96 км)
Погода в Айхале (Якутия, Россия) (129 км)
Погода в Эйке (Якутия, Россия) (146 км)
Погода в Хабардино (Якутия, Россия) (200 км)
Погода в Чумпуруке (Якутия, Россия) (257 км)
Погода в Оленеке (Якутия, Россия) (262 км)
Погода в Ярольине (Якутия, Россия) (269 км)
Погода в Сухане (Якутия, Россия) (316 км)
Погода в Чернышевском (Якутия, Россия) (368 км)
Погода в Нюрбе (Якутия, Россия) (383 км)

Пояснения к столбцам:

Ветер - указаны скорость ветра в м/с - средняя за 10 мин, порывы в срок и между сроками (в фигурных скобках) и направление, откуда дует ветер: С - северный, СВ - северо-восточный, В - восточный, ЮВ - юго-восточный, Ю - южный, ЮЗ - юго-западный, З - западный, СЗ - северо-западный.
Видимость - горизонтальная дальность видимости в метрах или километрах. При видимости от 1 до 10 км при отсутствии осадков обычно наблюдается дымка, при ухудшении видимости до 1 км и менее - туман. В сухую погоду видимость может ухудшаться дымом, пылью или мглою.
Явления - указаны атмосферные явления, наблюдавшиеся в срок или в последний час перед сроком; фигурными скобками обозначены явления, наблюдавшиеся между сроками (за 1-3 часа до срока); квадратными скобками обозначены град или гололедные отложения с указанием их диаметра в мм.
Облачность - указаны через наклонную черту общая и нижняя облачность в баллах и высота нижней границы облаков в метрах; квадратными скобками обозначены формы облаков: Ci - перистые, Cs - перисто-слоистые, Cc - перисто-кучевые, Ac - высококучевые, As - высокослоистые, Sc - слоисто-кучевые, Ns - слоисто-дождевые, Cu - кучевые, Cb - кучево-дождевые. Подробнее классификацию облаков см. в Атласе облаков (PDF).
T - Температура воздуха - температура, измеренная на высоте 2 м над землей.
Td - Температура точки росы - температура, при понижении до которой содержащийся в воздухе водяной пар достигнет насыщения.
f - Относительная влажность воздуха - влажноcть воздуха, измеренная на высоте 2 м над землей.
Te - Эффективная температура - температура, которую ощущает одетый по сезону человек в тени. Характеристика душности погоды. При расчете учитывается влияние влажности воздуха и скорости ветра на теплоощущения человека.
Tes - Эффективная температура на солнце - температура, которую ощущает человек, с поправкой на солнечный нагрев. Характеристика знойности погоды. Зависит от высоты солнца над горизонтом, облачности и скорости ветра. Ночью, в пасмурную погоду, а также при ветре 12 м/с и более поправка равна нулю.
P - Атмосферное давление - приведенное к уровню моря атмосферное давление.
Po - Атмосферное давление - измеренное на уровне метеостанции атмосферное давление.
Tmin - Минимальная температура - минимум температуры воздуха на высоте 2 м над землей.
Tmax - Максимальная температура - максимум температуры воздуха на высоте 2 м над землей.
R - Количество осадков - Количество выпавших осадков за период времени, мм. При наведении курсора мыши на число - период времени, за который выпало указанное количество осадков.
R24 - Количество осадков - Количество выпавших осадков за 24 часа, мм.
S - Снежный покров - Высота снежного покрова, см. При наведении курсора мыши на число - состояние снежного покрова и степень покрытия местности в баллах.